FW2941 Bradenton FL US current weather conditions

sailwx.info

Wind from 113

Air temperature 25.0° C
Dewpoint 14.7° C

Last reported at 2019-Dec-15 21:58 UTC.
Time now 2019-Dec-15 23:15 UTC

Location: N 27°29' W 082°23'.
View on Google Maps.

See reports from other nearby stations

  
Tides and Currents Weather Stations Pressure Air Temp Water Temp Dewpoint Dewpoint Depression Visibility Wind Speed Wind Dir Waves Ship Positions
date/time (UTC)wind fromknots sea level pressurealtimeterstation pressurevisibilityair tempwater tempwave heightnotes
2019-Dec-15 21:58 113 25.0
2019-Dec-15 21:53 120 25.0
2019-Dec-15 21:48 129 0 gusting 4 25.0
2019-Dec-15 21:43 136 0 gusting 3 25.0
2019-Dec-15 21:38 088 0 gusting 2 25.6
2019-Dec-15 21:33 118 0 gusting 2 25.0
2019-Dec-15 21:28 071 0 gusting 2 25.0
2019-Dec-15 21:23 088 1 gusting 2 25.6
2019-Dec-15 21:18 082 1 gusting 4 25.6
2019-Dec-15 21:13 082 0 gusting 5 25.6
2019-Dec-15 21:08 122 3 gusting 5 25.6
2019-Dec-15 21:03 083 1 gusting 5 25.6
2019-Dec-15 20:58 094 0 gusting 4 25.6
2019-Dec-15 20:53 086 0 gusting 4 25.6
2019-Dec-15 20:48 095 0 gusting 4 25.6
2019-Dec-15 20:43 139 1 gusting 6 25.6
2019-Dec-15 20:38 102 3 gusting 6 25.6
2019-Dec-15 20:33 126 1 gusting 6 25.6
2019-Dec-15 20:28 231 0 gusting 6 25.6
2019-Dec-15 20:23 077 2 gusting 6 25.6
2019-Dec-15 20:18 086 25.6
2019-Dec-15 20:13 129 1 gusting 6 25.6
2019-Dec-15 20:08 110 0 gusting 3 25.6
2019-Dec-15 20:03 076 0 gusting 6 25.6
2019-Dec-15 19:58 109 1 gusting 5 25.6
2019-Dec-15 19:53 104 1 gusting 4 25.6
2019-Dec-15 19:48 096 2 gusting 4 25.6
2019-Dec-15 19:43 121 25.6
2019-Dec-15 19:38 135 0 gusting 5 25.0
2019-Dec-15 19:33 068 1 gusting 6 25.0
2019-Dec-15 19:28 100 1 gusting 4 25.6
2019-Dec-15 19:23 113 1 gusting 4 25.0
2019-Dec-15 19:18 141 0 gusting 4 24.4
2019-Dec-15 19:13 088 1 gusting 6 24.4
2019-Dec-15 19:08 106 1 gusting 6 24.4
2019-Dec-15 19:03 091 2 gusting 5 25.0
2019-Dec-15 18:58 300 0 gusting 7 24.4
2019-Dec-15 18:53 118 3 gusting 7 24.4
2019-Dec-15 18:48 119 2 gusting 6 24.4
2019-Dec-15 18:43 219 2 gusting 6 23.9
2019-Dec-15 18:38 066 0 gusting 6 23.9
2019-Dec-15 18:33 136 1 gusting 6 23.9
2019-Dec-15 18:28 084 2 gusting 6 23.9
2019-Dec-15 18:23 129 2 gusting 6 23.3
2019-Dec-15 18:18 037 1 gusting 6 23.3
2019-Dec-15 18:13 119 0 gusting 5 23.3
2019-Dec-15 18:08 095 2 gusting 7 22.8
2019-Dec-15 18:03 130 1 gusting 8 22.8
2019-Dec-15 17:58 073 2 gusting 8 22.2
2019-Dec-15 17:53 077 6 gusting 8 22.2
2019-Dec-15 17:48 095 3 gusting 6 22.2
2019-Dec-15 17:43 068 3 gusting 6 22.2
2019-Dec-15 17:38 148 2 gusting 8 22.2
2019-Dec-15 17:33 059 4 gusting 8 21.7
2019-Dec-15 17:28 068 4 gusting 7 21.7
2019-Dec-15 17:23 087 1 gusting 6 21.7
2019-Dec-15 17:18 072 2 gusting 7 21.7
2019-Dec-15 17:13 120 3 gusting 7 21.7
2019-Dec-15 17:08 128 1 gusting 6 21.1
2019-Dec-15 17:03 264 3 gusting 6 21.1
2019-Dec-15 16:58 223 1 gusting 5 20.6
2019-Dec-15 16:53 203 0 gusting 6 20.6
2019-Dec-15 16:48 052 2 gusting 6 20.0
2019-Dec-15 16:43 066 2 gusting 6 20.0
2019-Dec-15 16:38 001 3 gusting 6 19.4
2019-Dec-15 16:33 133 2 gusting 6 19.4
2019-Dec-15 16:28 056 1 gusting 6 18.9
2019-Dec-15 16:23 001 3 gusting 6 18.9
2019-Dec-15 16:18 051 0 gusting 6 18.3
2019-Dec-15 16:13 082 2 gusting 6 18.3
2019-Dec-15 16:08 139 2 gusting 6 18.3
2019-Dec-15 16:03 081 1 gusting 6 17.8
2019-Dec-15 15:58 076 2 gusting 8 17.8
2019-Dec-15 15:53 058 2 gusting 6 17.8
2019-Dec-15 15:48 067 2 gusting 6 17.2
2019-Dec-15 15:43 077 2 gusting 5 17.2
2019-Dec-15 15:38 060 2 gusting 5 16.7
2019-Dec-15 15:33 075 1 gusting 5 16.7
2019-Dec-15 15:28 065 2 gusting 4 16.7
2019-Dec-15 15:23 119 1 gusting 6 16.1
2019-Dec-15 15:18 058 2 gusting 6 16.1
2019-Dec-15 15:13 074 1 gusting 5 15.6
2019-Dec-15 15:08 123 1 gusting 5 15.6
2019-Dec-15 15:03 060 1 gusting 6 15.0
2019-Dec-15 14:58 106 0 gusting 6 15.0
2019-Dec-15 14:53 044 1 gusting 5 14.4
2019-Dec-15 14:48 114 2 gusting 6 14.4
2019-Dec-15 14:43 089 0 gusting 5 14.4
2019-Dec-15 14:38 122 1 gusting 5 14.4
2019-Dec-15 14:33 066 1 gusting 5 13.9
2019-Dec-15 14:28 113 13.9
2019-Dec-15 14:23 079 0 gusting 2 13.9
2019-Dec-15 14:18 059 0 gusting 3 13.3
2019-Dec-15 14:13 114 0 gusting 3 13.3
2019-Dec-15 14:08 132 13.3
2019-Dec-15 14:03 103 12.8
2019-Dec-15 13:58 058 12.8
2019-Dec-15 13:53 117 12.2
2019-Dec-15 13:48 139 12.2
2019-Dec-15 13:43 200 11.7
2019-Dec-15 13:38 200 11.7
2019-Dec-15 13:33 229 11.1
2019-Dec-15 13:28 231 11.1
2019-Dec-15 13:23 231 10.6
2019-Dec-15 13:18 238 10.6
2019-Dec-15 13:13 239 10.0
2019-Dec-15 13:08 213 10.0
2019-Dec-15 13:03 213 10.0
2019-Dec-15 12:58 213 10.0
2019-Dec-15 12:53 213 9.4
2019-Dec-15 12:48 213 9.4
2019-Dec-15 12:43 217 9.4
2019-Dec-15 12:38 216 9.4
2019-Dec-15 12:33 216 9.4
2019-Dec-15 12:28 226 9.4
2019-Dec-15 12:23 226 9.4
2019-Dec-15 12:18 226 9.4
2019-Dec-15 12:13 215 9.4
2019-Dec-15 12:08 216 9.4
2019-Dec-15 12:03 233 9.4
2019-Dec-15 11:58 197 10.0
2019-Dec-15 11:53 122 10.0
2019-Dec-15 11:48 129 10.0
2019-Dec-15 11:43 125 10.0
2019-Dec-15 11:38 124 9.4
2019-Dec-15 11:33 113 9.4
2019-Dec-15 11:28 112 9.4
2019-Dec-15 11:23 179 9.4
2019-Dec-15 11:18 180 9.4
2019-Dec-15 11:13 180 9.4
2019-Dec-15 11:08 180 9.4
2019-Dec-15 11:03 180 9.4
2019-Dec-15 10:58 180 9.4
2019-Dec-15 10:53 180 9.4
2019-Dec-15 10:48 180 9.4
2019-Dec-15 10:43 180 9.4
2019-Dec-15 10:38 149 9.4
2019-Dec-15 10:33 115 9.4
2019-Dec-15 10:28 115 9.4
2019-Dec-15 10:23 115 9.4
2019-Dec-15 10:18 115 9.4
2019-Dec-15 10:13 115 9.4
2019-Dec-15 10:08 115 8.9
2019-Dec-15 10:03 115 9.4
2019-Dec-15 09:58 115 9.4
2019-Dec-15 09:53 115 8.9
2019-Dec-15 09:48 115 8.9
2019-Dec-15 09:43 115 9.4
2019-Dec-15 09:38 115 9.4
2019-Dec-15 09:33 110 9.4
2019-Dec-15 09:28 110 9.4
2019-Dec-15 09:23 110 9.4
2019-Dec-15 09:18 110 9.4
2019-Dec-15 09:13 110 9.4
2019-Dec-15 09:08 110 10.0
2019-Dec-15 09:03 110 10.0
2019-Dec-15 08:58 110 10.0
2019-Dec-15 08:53 109 10.0
2019-Dec-15 08:48 110 10.0
2019-Dec-15 08:43 110 10.0
2019-Dec-15 08:38 108 10.0
2019-Dec-15 08:33 108 10.0
2019-Dec-15 08:28 108 10.6
2019-Dec-15 08:23 108 10.0
2019-Dec-15 08:18 108 10.0
2019-Dec-15 08:13 108 10.6
2019-Dec-15 08:08 087 10.6
2019-Dec-15 08:03 088 10.6
2019-Dec-15 07:58 087 10.6
2019-Dec-15 07:53 087 11.1
2019-Dec-15 07:48 087 11.1
2019-Dec-15 07:43 087 11.1
2019-Dec-15 07:38 087 11.1
2019-Dec-15 07:33 095 10.6
2019-Dec-15 07:28 095 11.1
2019-Dec-15 07:23 095 10.6
2019-Dec-15 07:18 095 10.6
2019-Dec-15 07:13 095 10.6
2019-Dec-15 07:08 095 10.6
2019-Dec-15 07:03 095 10.6
2019-Dec-15 06:58 095 10.6
2019-Dec-15 06:53 095 10.6
2019-Dec-15 06:48 095 11.1
2019-Dec-15 06:43 095 11.1
2019-Dec-15 06:38 095 11.1
2019-Dec-15 06:33 095 11.1
2019-Dec-15 06:28 095 11.1
2019-Dec-15 06:23 095 11.1
2019-Dec-15 06:18 095 11.1
2019-Dec-15 06:13 095 11.1
2019-Dec-15 06:08 094 11.1
2019-Dec-15 06:03 094 11.7
2019-Dec-15 05:58 094 11.7
2019-Dec-15 05:53 094 11.7
2019-Dec-15 05:48 094 11.7
2019-Dec-15 05:43 094 11.7
2019-Dec-15 05:38 094 11.7
2019-Dec-15 05:33 094 12.2
2019-Dec-15 05:28 094 12.2
2019-Dec-15 05:23 094 12.2
2019-Dec-15 05:18 094 12.2
2019-Dec-15 05:13 094 12.8
2019-Dec-15 05:08 094 12.8
2019-Dec-15 05:03 054 12.8
2019-Dec-15 04:58 054 12.8
2019-Dec-15 04:53 092 12.8
2019-Dec-15 04:48 068 12.8
2019-Dec-15 04:43 060 13.3
2019-Dec-15 04:38 059 13.3
2019-Dec-15 04:33 080 13.3
2019-Dec-15 04:28 063 13.3
2019-Dec-15 04:23 049 12.8
2019-Dec-15 04:18 011 12.8
2019-Dec-15 04:13 011 12.8
2019-Dec-15 04:08 011 12.8
2019-Dec-15 04:03 011 12.8
2019-Dec-15 03:58 011 12.8
2019-Dec-15 03:53 011 12.8
2019-Dec-15 03:48 011 12.8
2019-Dec-15 03:43 011 12.8
2019-Dec-15 03:38 011 12.8
2019-Dec-15 03:33 011 13.3
2019-Dec-15 03:28 011 13.3
2019-Dec-15 03:23 011 13.3
2019-Dec-15 03:18 011 13.3
2019-Dec-15 03:13 011 13.9
2019-Dec-15 03:08 011 13.9
2019-Dec-15 03:03 011 13.3
2019-Dec-15 02:58 011 13.3
2019-Dec-15 02:53 011 13.9
2019-Dec-15 02:48 011 13.9
2019-Dec-15 02:43 011 13.9
2019-Dec-15 02:38 011 13.9
2019-Dec-15 02:33 011 13.9
2019-Dec-15 02:28 011 13.9
2019-Dec-15 02:23 011 13.9
2019-Dec-15 02:18 011 13.9
2019-Dec-15 02:13 011 13.9
2019-Dec-15 02:08 011 14.4
2019-Dec-15 02:03 011 14.4
2019-Dec-15 01:58 011 14.4
2019-Dec-15 01:53 011 14.4
2019-Dec-15 01:48 011 14.4
2019-Dec-15 01:43 011 14.4
2019-Dec-15 01:38 011 14.4
2019-Dec-15 01:33 011 14.4
2019-Dec-15 01:28 011 14.4
2019-Dec-15 01:23 011 15.0
2019-Dec-15 01:18 011 15.0
2019-Dec-15 01:13 011 15.0
2019-Dec-15 01:08 011 15.0
2019-Dec-15 01:03 011 15.0
2019-Dec-15 00:58 011 15.0
2019-Dec-15 00:53 011 15.0
2019-Dec-15 00:48 011 15.0
2019-Dec-15 00:43 011 15.6
2019-Dec-15 00:38 011 15.6
2019-Dec-15 00:33 011 15.6
2019-Dec-15 00:28 011 15.6
2019-Dec-15 00:23 011 16.1
2019-Dec-15 00:18 011 16.1
2019-Dec-15 00:13 011 16.1
2019-Dec-15 00:08 011 16.1
2019-Dec-15 00:03 011 16.7
2019-Dec-14 23:58 011 16.7
2019-Dec-14 23:53 011 16.7
2019-Dec-14 23:48 011 17.2
2019-Dec-14 23:43 011 17.2
2019-Dec-14 23:38 011 17.2
2019-Dec-14 23:33 011 17.8
2019-Dec-14 23:28 011 17.8
2019-Dec-14 23:23 011 18.3
2019-Dec-14 23:18 010 18.3
2019-Dec-14 23:13 010 18.3
2019-Dec-14 23:08 278 18.9
2019-Dec-14 23:03 293 0 gusting 1 18.9
2019-Dec-14 22:58 049 18.9
2019-Dec-14 22:53 054 19.4
2019-Dec-14 22:48 328 19.4
2019-Dec-14 22:43 257 0 gusting 4 19.4
2019-Dec-14 22:38 341 0 gusting 6 20.0
2019-Dec-14 22:33 300 1 gusting 6 20.0
2019-Dec-14 22:28 277 0 gusting 5 20.0
2019-Dec-14 22:23 339 1 gusting 6 20.0
2019-Dec-14 22:18 274 0 gusting 4 20.6
2019-Dec-14 22:13 320 2 gusting 6 20.6
2019-Dec-14 22:08 281 3 gusting 6 20.6
2019-Dec-14 22:03 313 3 gusting 6 21.1
2019-Dec-14 21:58 231 2 gusting 7 21.1
2019-Dec-14 21:53 084 2 gusting 7 21.1
2019-Dec-14 21:48 279 4 gusting 7 21.1
2019-Dec-14 21:43 299 1 gusting 6 21.1
2019-Dec-14 21:38 222 2 gusting 6 21.1
2019-Dec-14 21:33 071 1 gusting 6 21.1
2019-Dec-14 21:28 101 1 gusting 6 21.1
2019-Dec-14 21:23 321 3 gusting 8 21.1
2019-Dec-14 21:18 282 2 gusting 8 21.7
2019-Dec-14 21:03 291 4 gusting 9 21.7
2019-Dec-14 20:58 350 2 gusting 9 22.2
2019-Dec-14 20:53 276 3 gusting 7 22.2
2019-Dec-14 20:48 352 3 gusting 7 22.2
2019-Dec-14 20:43 283 2 gusting 9 22.2
2019-Dec-14 20:38 217 2 gusting 9 22.2
2019-Dec-14 20:33 343 4 gusting 9 22.2
2019-Dec-14 20:28 261 5 gusting 9 22.2
2019-Dec-14 20:23 291 6 gusting 9 22.2
2019-Dec-14 20:18 311 2 gusting 8 22.8
2019-Dec-14 20:13 295 3 gusting 8 22.8
2019-Dec-14 20:08 061 3 gusting 9 22.8
2019-Dec-14 20:03 274 5 gusting 10 22.8
2019-Dec-14 19:58 319 4 gusting 11 22.8
2019-Dec-14 19:53 277 2 gusting 11 22.8
2019-Dec-14 19:48 276 4 gusting 14 22.8
2019-Dec-14 19:43 285 6 gusting 10 22.8
2019-Dec-14 19:38 262 6 gusting 12 23.3
2019-Dec-14 19:33 285 5 gusting 12 23.3
2019-Dec-14 19:28 276 5 gusting 11 23.3
2019-Dec-14 19:23 307 6 gusting 11 23.3
2019-Dec-14 19:18 283 5 gusting 11 23.3
2019-Dec-14 19:13 287 6 gusting 11 23.3
2019-Dec-14 19:08 264 3 gusting 10 23.3
2019-Dec-14 19:03 281 3 gusting 8 23.3
2019-Dec-14 18:58 284 5 gusting 11 23.3
2019-Dec-14 18:53 272 4 gusting 11 23.3
2019-Dec-14 18:48 280 5 gusting 10 23.9
2019-Dec-14 18:43 274 3 gusting 10 23.9
2019-Dec-14 18:38 295 6 gusting 11 23.9
2019-Dec-14 18:33 285 3 gusting 11 23.9
2019-Dec-14 18:28 297 3 gusting 11 23.9
2019-Dec-14 18:23 086 3 gusting 9 23.9
2019-Dec-14 18:18 303 3 gusting 12 23.9
2019-Dec-14 18:13 285 6 gusting 12 23.9
2019-Dec-14 18:08 282 4 gusting 13 23.9
2019-Dec-14 18:03 264 4 gusting 13 23.9
2019-Dec-14 17:58 274 5 gusting 12 23.9
2019-Dec-14 17:53 276 5 gusting 12 23.9
2019-Dec-14 17:48 302 6 gusting 10 23.9
2019-Dec-14 17:43 283 3 gusting 10 23.9
2019-Dec-14 17:38 277 4 gusting 15 23.9
2019-Dec-14 17:33 272 6 gusting 9 23.9
2019-Dec-14 17:28 293 5 gusting 9 23.9
2019-Dec-14 17:23 022 3 gusting 6 23.9
2019-Dec-14 17:18 315 2 gusting 9 23.9
2019-Dec-14 17:13 279 1 gusting 9 23.9
2019-Dec-14 17:08 257 2 gusting 8 23.9
2019-Dec-14 17:03 275 3 gusting 8 23.3
2019-Dec-14 16:58 291 4 gusting 10 23.3
2019-Dec-14 16:53 302 3 gusting 6 23.3
2019-Dec-14 16:48 283 2 gusting 6 22.8
2019-Dec-14 16:43 061 2 gusting 6 22.8
2019-Dec-14 16:38 025 1 gusting 6 22.8
2019-Dec-14 16:33 273 1 gusting 7 22.8
2019-Dec-14 16:28 095 3 gusting 8 22.8
2019-Dec-14 16:23 278 3 gusting 8 22.8
2019-Dec-14 16:18 283 3 gusting 8 23.3
2019-Dec-14 16:13 297 2 gusting 6 22.8
2019-Dec-14 16:08 291 2 gusting 6 22.8
2019-Dec-14 16:03 297 1 gusting 6 22.8
2019-Dec-14 15:58 274 0 gusting 5 22.8
2019-Dec-14 15:53 305 3 gusting 5 22.8
2019-Dec-14 15:48 300 1 gusting 5 22.8
2019-Dec-14 15:43 096 1 gusting 5 22.8
2019-Dec-14 15:38 297 2 gusting 5 22.8
2019-Dec-14 15:33 279 0 gusting 3 22.2
2019-Dec-14 15:28 067 1 gusting 4 22.2
2019-Dec-14 15:23 229 0 gusting 4 21.7
2019-Dec-14 15:18 278 0 gusting 2 21.7
2019-Dec-14 15:13 307 21.7
2019-Dec-14 15:08 266 0 gusting 3 21.7
2019-Dec-14 15:03 267 0 gusting 3 21.7
2019-Dec-14 14:58 353 0 gusting 3 21.7
2019-Dec-14 14:53 230 21.7
2019-Dec-14 14:48 302 21.7
2019-Dec-14 14:43 270 0 gusting 5 21.7
2019-Dec-14 14:38 315 0 gusting 3 21.7
2019-Dec-14 14:33 290 1 gusting 3 21.7
2019-Dec-14 14:28 285 1 gusting 3 21.7
2019-Dec-14 14:23 259 1 gusting 3 21.1
2019-Dec-14 14:18 312 1 gusting 2 21.1
2019-Dec-14 14:13 276 1 gusting 2 21.1
2019-Dec-14 14:08 277 0 gusting 0 21.1
2019-Dec-14 14:03 258 20.6
2019-Dec-14 13:58 258 21.1
2019-Dec-14 13:53 262 20.6
2019-Dec-14 13:48 262 20.6
2019-Dec-14 13:43 262 20.6
2019-Dec-14 13:38 262 20.6
2019-Dec-14 13:33 262 0 gusting 3 20.6
2019-Dec-14 13:28 260 0 gusting 3 21.1
2019-Dec-14 13:23 318 0 gusting 5 21.1
2019-Dec-14 13:18 294 1 gusting 5 21.1
2019-Dec-14 13:13 304 0 gusting 5 21.1
2019-Dec-14 13:08 287 1 gusting 5 21.1
2019-Dec-14 13:03 295 1 gusting 7 21.1
2019-Dec-14 12:58 287 4 gusting 9 21.1
2019-Dec-14 12:53 277 4 gusting 9 21.7
2019-Dec-14 12:48 297 3 gusting 7 21.7
2019-Dec-14 12:43 313 4 gusting 13 21.7
2019-Dec-14 12:38 281 6 gusting 13 21.7
2019-Dec-14 12:33 300 3 gusting 18 21.7
2019-Dec-14 12:28 266 6 gusting 18 21.7
2019-Dec-14 12:23 286 5 gusting 15 21.7
2019-Dec-14 12:18 276 7 gusting 20 21.7
2019-Dec-14 12:13 349 10 gusting 18 22.2
2019-Dec-14 12:08 287 6 gusting 13 22.8
2019-Dec-14 12:03 285 2 gusting 5 23.3
2019-Dec-14 11:58 240 2 gusting 6 23.3
2019-Dec-14 11:53 256 2 gusting 6 22.8
2019-Dec-14 11:48 257 2 gusting 4 22.8
2019-Dec-14 11:43 245 1 gusting 5 22.8
2019-Dec-14 11:38 278 1 gusting 6 22.8
2019-Dec-14 11:33 239 2 gusting 6 22.8
2019-Dec-14 11:28 252 1 gusting 5 22.8
2019-Dec-14 11:23 228 3 gusting 6 22.8
2019-Dec-14 11:18 277 2 gusting 7 22.8
2019-Dec-14 10:58 252 2 gusting 6 22.8
2019-Dec-14 10:53 269 2 gusting 6 22.8
2019-Dec-14 10:48 254 3 gusting 8 22.8
2019-Dec-14 10:43 223 2 gusting 6 22.8
2019-Dec-14 10:38 236 2 gusting 6 22.8
2019-Dec-14 10:33 264 3 gusting 6 22.8
2019-Dec-14 10:28 240 2 gusting 6 22.8
2019-Dec-14 10:23 238 3 gusting 7 22.8
2019-Dec-14 10:18 217 4 gusting 8 22.8
2019-Dec-14 10:13 253 3 gusting 8 22.8
2019-Dec-14 10:08 249 3 gusting 8 22.8
2019-Dec-14 10:03 236 2 gusting 7 22.8
2019-Dec-14 09:58 239 3 gusting 9 22.8
2019-Dec-14 09:53 246 2 gusting 9 22.8
2019-Dec-14 09:48 273 2 gusting 10 22.8
2019-Dec-14 09:43 257 4 gusting 10 22.8
2019-Dec-14 09:38 255 4 gusting 7 22.8
2019-Dec-14 09:33 282 3 gusting 6 22.8
2019-Dec-14 09:28 254 2 gusting 6 22.8
2019-Dec-14 09:23 243 2 gusting 7 22.8
2019-Dec-14 09:18 241 2 gusting 7 22.8
2019-Dec-14 09:08 234 3 gusting 6 22.8
2019-Dec-14 09:03 294 2 gusting 6 22.8
2019-Dec-14 08:53 228 1 gusting 5 22.8
2019-Dec-14 08:48 270 1 gusting 6 22.8
2019-Dec-14 08:43 210 2 gusting 6 22.8
2019-Dec-14 08:38 232 2 gusting 8 22.8
2019-Dec-14 08:33 261 3 gusting 9 22.8
2019-Dec-14 08:28 227 1 gusting 9 22.8
2019-Dec-14 08:23 250 3 gusting 6 22.8
2019-Dec-14 08:18 268 3 gusting 6 22.2
2019-Dec-14 08:13 209 3 gusting 6 22.2
2019-Dec-14 08:08 225 2 gusting 6 22.2
2019-Dec-14 08:03 261 0 gusting 4 22.2
2019-Dec-14 07:58 250 0 gusting 6 22.2
2019-Dec-14 07:53 264 1 gusting 8 22.2
2019-Dec-14 07:48 217 2 gusting 6 22.2
2019-Dec-14 07:43 191 2 gusting 6 22.2
2019-Dec-14 07:38 293 2 gusting 6 21.7
2019-Dec-14 07:33 266 0 gusting 4 21.7
2019-Dec-14 07:28 249 1 gusting 4 21.7
2019-Dec-14 07:23 214 0 gusting 4 21.7
2019-Dec-14 07:18 246 1 gusting 6 21.7
2019-Dec-14 07:13 242 0 gusting 4 21.7
2019-Dec-14 07:08 200 0 gusting 4 21.7
2019-Dec-14 07:03 231 0 gusting 4 22.2
2019-Dec-14 06:58 236 1 gusting 4 22.2
2019-Dec-14 06:53 234 1 gusting 5 22.2
2019-Dec-14 06:48 246 1 gusting 5 22.2
2019-Dec-14 06:43 275 1 gusting 3 22.2
2019-Dec-14 06:38 245 1 gusting 4 22.2
2019-Dec-14 06:33 240 1 gusting 4 22.2
2019-Dec-14 06:28 246 1 gusting 4 22.2
2019-Dec-14 06:23 253 1 gusting 4 22.2
2019-Dec-14 06:18 241 1 gusting 3 21.7
2019-Dec-14 06:13 200 1 gusting 2 21.7
2019-Dec-14 06:08 240 0 gusting 2 21.7
2019-Dec-14 06:03 213 0 gusting 2 21.7
2019-Dec-14 05:58 216 0 gusting 3 21.7
2019-Dec-14 05:53 203 0 gusting 3 21.7
2019-Dec-14 05:48 235 0 gusting 1 21.7
2019-Dec-14 05:43 247 21.7
2019-Dec-14 05:38 239 21.7
2019-Dec-14 05:33 234 21.7
2019-Dec-14 05:28 260 0 gusting 1 21.7
2019-Dec-14 05:23 247 21.7
2019-Dec-14 05:18 245 0 gusting 2 21.7
2019-Dec-14 05:13 242 21.7
2019-Dec-14 05:08 262 22.2
2019-Dec-14 05:03 278 0 gusting 2 22.2
2019-Dec-14 04:58 243 0 gusting 3 22.2
2019-Dec-14 04:53 223 1 gusting 5 22.2
2019-Dec-14 04:48 250 1 gusting 5 22.2
2019-Dec-14 04:43 232 1 gusting 4 22.2
2019-Dec-14 04:38 294 1 gusting 5 21.7
2019-Dec-14 04:33 260 0 gusting 2 21.7
2019-Dec-14 04:28 255 0 gusting 5 21.7
2019-Dec-14 04:23 180 1 gusting 5 21.7
2019-Dec-14 04:18 215 0 gusting 3 21.7
2019-Dec-14 04:13 280 0 gusting 3 21.7
2019-Dec-14 04:08 193 0 gusting 4 21.7
2019-Dec-14 04:03 274 0 gusting 4 21.1
2019-Dec-14 03:58 199 0 gusting 2 21.1
2019-Dec-14 03:53 208 0 gusting 3 21.1
2019-Dec-14 03:48 241 0 gusting 3 21.1
2019-Dec-14 03:43 308 1 gusting 3 21.1
2019-Dec-14 03:38 227 21.1
2019-Dec-14 03:33 166 0 gusting 2 21.1
2019-Dec-14 03:28 266 0 gusting 2 21.1
2019-Dec-14 03:23 217 21.1
2019-Dec-14 03:18 151 21.1
2019-Dec-14 03:13 207 0 gusting 1 21.1
2019-Dec-14 03:08 225 21.1
2019-Dec-14 03:03 210 21.1
2019-Dec-14 02:58 206 21.1
2019-Dec-14 02:53 229 21.1
2019-Dec-14 02:48 239 21.1
2019-Dec-14 02:43 248 21.1
2019-Dec-14 02:38 242 21.1
2019-Dec-14 02:33 227 0 gusting 1 21.1
2019-Dec-14 02:28 196 21.1
2019-Dec-14 02:23 210 21.7
2019-Dec-14 02:18 210 21.7
2019-Dec-14 02:13 229 0 gusting 5 21.7
2019-Dec-14 02:08 229 0 gusting 5 21.7
2019-Dec-14 02:03 197 1 gusting 4 21.7
2019-Dec-14 01:58 248 1 gusting 5 21.7
2019-Dec-14 01:53 217 2 gusting 5 21.7
2019-Dec-14 01:48 252 2 gusting 5 21.7
2019-Dec-14 01:43 255 1 gusting 5 21.7
2019-Dec-14 01:38 224 0 gusting 3 21.7
2019-Dec-14 01:33 210 1 gusting 3 21.7
2019-Dec-14 01:28 233 1 gusting 3 21.7
2019-Dec-14 01:23 211 1 gusting 5 21.7
2019-Dec-14 01:18 108 1 gusting 5 21.7
2019-Dec-14 01:13 246 1 gusting 3 21.7
2019-Dec-14 01:08 205 0 gusting 3 21.7
2019-Dec-14 01:03 212 21.7
2019-Dec-14 00:58 223 1 gusting 4 21.7
2019-Dec-14 00:53 244 0 gusting 3 21.7
2019-Dec-14 00:48 194 21.7
2019-Dec-14 00:43 221 21.7
2019-Dec-14 00:38 241 21.7
2019-Dec-14 00:33 229 21.7
2019-Dec-14 00:28 258 21.7
2019-Dec-14 00:23 279 0 gusting 2 21.7
2019-Dec-14 00:18 299 0 gusting 2 21.7
2019-Dec-14 00:13 248 0 gusting 2 21.7
2019-Dec-14 00:08 235 0 gusting 2 21.7
2019-Dec-14 00:03 267 0 gusting 3 21.7
2019-Dec-13 23:58 256 0 gusting 4 21.7
2019-Dec-13 23:53 276 1 gusting 4 21.7
2019-Dec-13 23:48 215 0 gusting 5 22.2
2019-Dec-13 23:43 246 1 gusting 5 22.2
2019-Dec-13 23:38 215 0 gusting 3 22.2
2019-Dec-13 23:33 241 0 gusting 6 22.2
2019-Dec-13 23:28 188 1 gusting 6 22.2
2019-Dec-13 23:23 232 1 gusting 6 22.2
2019-Dec-13 23:18 231 1 gusting 4 22.2
2019-Dec-13 23:13 220 0 gusting 2 22.2
2019-Dec-13 23:08 229 22.2
2019-Dec-13 23:03 246 0 gusting 4 22.2